This is the latest recevied weather packets stored in our database for station/object SQ3VAS-10. If no packets are shown the sender has not sent any weather packets the latest 10 day(s).
| Time | Temp. | Humidity | Pressure | Rain* | Wind** | Luminosity | Snow |
|---|---|---|---|---|---|---|---|
| 1778014227 | 13.33° C | 87% | 1009.3 hPa | - | - | - | - |
| 1778013655 | 13.89° C | 87% | 1009.2 hPa | - | - | - | - |
| 1778013083 | 13.89° C | 85% | 1009.2 hPa | - | - | - | - |
| 1778012511 | 13.89° C | 85% | 1009.1 hPa | - | - | - | - |
| 1778011940 | 13.89° C | 84% | 1009.1 hPa | - | - | - | - |
| 1778011369 | 14.44° C | 83% | 1009 hPa | - | - | - | - |
| 1778010796 | 15° C | 82% | 1009.1 hPa | - | - | - | - |
| 1778010224 | 15° C | 82% | 1009.2 hPa | - | - | - | - |
| 1778009652 | 15.56° C | 82% | 1009.3 hPa | - | - | - | - |
| 1778009080 | 15.56° C | 82% | 1009.4 hPa | - | - | - | - |
| 1778008507 | 15° C | 82% | 1009.4 hPa | - | - | - | - |
| 1778007936 | 15.56° C | 81% | 1009.3 hPa | - | - | - | - |
| 1778007363 | 16.11° C | 79% | 1009.2 hPa | - | - | - | - |
| 1778006792 | 16.11° C | 78% | 1009.2 hPa | - | - | - | - |
| 1778006219 | 16.11° C | 78% | 1009.4 hPa | - | - | - | - |
| 1778005648 | 16.11° C | 78% | 1009.3 hPa | - | - | - | - |
| 1778005075 | 16.67° C | 77% | 1009.2 hPa | - | - | - | - |
| 1778004504 | 16.67° C | 77% | 1009.3 hPa | - | - | - | - |
| 1778003932 | 16.67° C | 77% | 1009.2 hPa | - | - | - | - |
| 1778003359 | 16.67° C | 76% | 1009.1 hPa | - | - | - | - |
| 1778002788 | 17.22° C | 75% | 1009.2 hPa | - | - | - | - |
| 1778002215 | 17.22° C | 76% | 1009.1 hPa | - | - | - | - |
| 1778001642 | 17.78° C | 73% | 1009.1 hPa | - | - | - | - |
| 1778001071 | 17.78° C | 72% | 1009.1 hPa | - | - | - | - |
| 1778000498 | 18.33° C | 71% | 1009.1 hPa | - | - | - | - |
* Rain since midnight (hover to see other rain measurements)
** Current wind speed in m/s (hover to see current wind gust speed)